EW9431 Weather Reports


Display with metric or nautical units.
time (UTC)temp
F
wind
direction
speed
MPH
gust
MPH
rain 1hr
in
rain 24hr
in
rain mn
in
humidity
%
barometer
mb
20260503032543 69 40 1.0 3.0 0.00 0.00 0.00 60 1013.1
20260503032043 69 327 0.0 2.0 0.00 0.00 0.00 60 1013.1
20260503031543 70 327 0.0 2.0 0.00 0.00 0.00 60 1013.1
20260503031043 70 327 0.0 2.0 0.00 0.00 0.00 59 1013.0
20260503030543 71 327 0.0 2.0 0.00 0.00 0.00 58 1013.0
20260503030041 71 271 0.0 2.0 0.00 0.00 0.00 57 1013.0
20260503025541 72 271 0.0 2.0 0.00 0.00 0.00 56 1012.9
20260503025040 73 271 0.0 2.0 0.00 0.00 0.00 56 1012.9
20260503024541 74 271 0.0 1.0 0.00 0.00 0.00 52 1012.9
20260503024040 75 271 0.0 2.0 0.00 0.00 0.00 50 1012.9
20260503023540 75 271 0.0 2.0 0.00 0.00 0.00 49 1012.9
20260503023043 76 271 0.0 2.0 0.00 0.00 0.00 47 1012.9
20260503022539 77 271 0.0 3.0 0.00 0.00 0.00 47 1012.9
20260503022038 77 250 1.0 3.0 0.00 0.00 0.00 47 1012.9
20260503021538 77 221 1.0 4.0 0.00 0.00 0.00 47 1012.9
20260503021038 78 216 2.0 4.0 0.00 0.00 0.00 47 1012.8
20260503020538 78 213 1.0 4.0 0.00 0.00 0.00 47 1012.8
20260503020037 78 205 2.0 4.0 0.00 0.00 0.00 47 1012.9
20260503015539 78 240 1.0 3.0 0.00 0.00 0.00 47 1013.0
20260503015037 78 255 0.0 4.0 0.00 0.00 0.00 47 1013.1
20260503014535 78 212 2.0 4.0 0.00 0.00 0.00 46 1013.1
20260503014034 78 199 1.0 5.0 0.00 0.00 0.00 46 1013.1
20260503013533 79 212 2.0 5.0 0.00 0.00 0.00 44 1013.2
20260503013039 79 197 2.0 5.0 0.00 0.00 0.00 43 1013.2
20260503012532 78 220 2.0 4.0 0.00 0.00 0.00 43 1013.2
20260503012031 78 203 2.0 4.0 0.00 0.00 0.00 44 1013.3
20260503011530 78 231 2.0 4.0 0.00 0.00 0.00 45 1013.3
20260503011029 78 211 1.0 5.0 0.00 0.00 0.00 45 1013.3
20260503010528 78 187 0.0 5.0 0.00 0.00 0.00 42 1013.3
20260503010028 78 205 3.0 6.0 0.00 0.00 0.00 46 1013.3
20260503005530 78 222 3.0 7.0 0.00 0.00 0.00 44 1013.3
20260503005030 78 193 4.0 7.0 0.00 0.00 0.00 47 1013.3
20260503004534 78 202 3.0 5.0 0.00 0.00 0.00 46 1013.4
20260503004024 78 193 1.0 5.0 0.00 0.00 0.00 46 1013.4
20260503003523 77 151 1.0 5.0 0.00 0.00 0.00 42 1013.5
20260503003027 77 193 3.0 5.0 0.00 0.00 0.00 47 1013.5
20260503002522 77 251 1.0 5.0 0.00 0.00 0.00 47 1013.5
20260503002021 77 228 1.0 5.0 0.00 0.00 0.00 48 1013.6
20260503001520 77 201 3.0 7.0 0.00 0.00 0.00 49 1013.7
20260503001020 77 176 3.0 8.0 0.00 0.00 0.00 48 1013.7
20260503000523 77 183 4.0 8.0 0.00 0.00 0.00 48 1013.8
20260503000024 77 190 2.0 7.0 0.00 0.00 0.00 46 1013.9
20260502235518 77 158 3.0 6.0 0.00 0.00 0.00 47 1013.9
20260502235017 77 226 3.0 6.0 0.00 0.00 0.00 46 1013.9
20260502234518 77 221 3.0 7.0 0.00 0.00 0.00 47 1013.9
20260502234015 77 210 2.0 6.0 0.00 0.00 0.00 46 1014.0
20260502233513 77 208 3.0 7.0 0.00 0.00 0.00 45 1014.1
20260502233027 77 170 3.0 7.0 0.00 0.00 0.00 44 1014.2
20260502232513 77 193 3.0 6.0 0.00 0.00 0.00 45 1014.2
20260502232013 76 227 3.0 6.0 0.00 0.00 0.00 44 1014.2
20260502231512 76 102 2.0 6.0 0.00 0.00 0.00 45 1014.3
20260502231011 76 160 3.0 6.0 0.00 0.00 0.00 44 1014.4
20260502230511 76 210 1.0 4.0 0.00 0.00 0.00 46 1014.4
20260502230009 76 283 1.0 6.0 0.00 0.00 0.00 47 1014.5
20260502225508 76 247 2.0 6.0 0.00 0.00 0.00 44 1014.6
20260502225008 76 210 3.0 7.0 0.00 0.00 0.00 44 1014.6
20260502224507 76 158 2.0 7.0 0.00 0.00 0.00 47 1014.7
20260502224008 76 293 2.0 6.0 0.00 0.00 0.00 47 1014.8
20260502223505 76 219 2.0 6.0 0.00 0.00 0.00 49 1014.8
20260502223003 76 154 3.0 7.0 0.00 0.00 0.00 49 1014.9
20260502222503 76 181 3.0 6.0 0.00 0.00 0.00 49 1015.0
20260502222002 76 213 2.0 6.0 0.00 0.00 0.00 49 1015.0
20260502221600 75 226 1.0 8.0 0.00 0.00 0.00 50 1015.1
20260502221059 75 204 2.0 8.0 0.00 0.00 0.00 50 1015.1
20260502220558 75 205 3.0 7.0 0.00 0.00 0.00 53 1015.2
20260502220057 74 228 1.0 4.0 0.00 0.00 0.00 51 1015.3
20260502215556 74 160 1.0 7.0 0.00 0.00 0.00 52 1015.3
20260502215055 73 203 2.0 7.0 0.00 0.00 0.00 53 1015.4
20260502214558 73 268 3.0 6.0 0.00 0.00 0.00 54 1015.5
20260502214051 72 181 3.0 5.0 0.00 0.00 0.00 55 1015.5
20260502213552 72 203 3.0 6.0 0.00 0.00 0.00 55 1015.6
20260502213049 71 161 3.0 6.0 0.00 0.00 0.00 55 1015.7
20260502212549 71 240 2.0 6.0 0.00 0.00 0.00 57 1015.7
20260502212048 71 220 3.0 6.0 0.00 0.00 0.00 55 1015.7
20260502211549 71 162 3.0 7.0 0.00 0.00 0.00 56 1015.8
20260502211049 71 219 4.0 7.0 0.00 0.00 0.00 57 1015.9
20260502210546 71 196 4.0 7.0 0.00 0.00 0.00 55 1015.9
20260502210053 71 204 2.0 7.0 0.00 0.00 0.00 56 1016.0
20260502205547 71 222 4.0 7.0 0.00 0.00 0.00 56 1016.0
20260502205046 71 218 2.0 8.0 0.00 0.00 0.00 55 1016.1
20260502204553 71 198 4.0 7.0 0.00 0.00 0.00 53 1016.1
20260502204045 71 204 3.0 7.0 0.00 0.00 0.00 52 1016.2
20260502203546 71 165 4.0 8.0 0.00 0.00 0.00 52 1016.3
20260502203049 71 210 4.0 8.0 0.00 0.00 0.00 52 1016.3
20260502202544 71 205 3.0 7.0 0.00 0.00 0.00 52 1016.4
20260502202048 71 216 4.0 6.0 0.00 0.00 0.00 51 1016.5
20260502201544 71 210 4.0 8.0 0.00 0.00 0.00 52 1016.5
20260502201043 71 168 5.0 8.0 0.00 0.00 0.00 52 1016.6
20260502200543 71 179 4.0 7.0 0.00 0.00 0.00 53 1016.6
20260502200047 71 218 4.0 7.0 0.00 0.00 0.00 53 1016.7
20260502195540 70 172 3.0 7.0 0.00 0.00 0.00 53 1016.8
20260502195039 70 213 2.0 7.0 0.00 0.00 0.00 54 1016.8
20260502194539 70 167 3.0 7.0 0.00 0.00 0.00 54 1016.9
20260502194038 70 199 3.0 7.0 0.00 0.00 0.00 54 1016.9
20260502193537 70 235 2.0 7.0 0.00 0.00 0.00 55 1016.9
20260502193039 70 207 3.0 7.0 0.00 0.00 0.00 55 1016.9
20260502192535 70 201 3.0 6.0 0.00 0.00 0.00 55 1016.9
20260502192034 70 230 2.0 6.0 0.00 0.00 0.00 55 1016.9
20260502191533 70 164 3.0 6.0 0.00 0.00 0.00 57 1017.0
20260502191033 69 170 2.0 7.0 0.00 0.00 0.00 58 1017.0
20260502190532 69 214 4.0 8.0 0.00 0.00 0.00 56 1017.0
20260502190041 69 191 4.0 8.0 0.00 0.00 0.00 57 1017.1
20260502185529 69 213 4.0 7.0 0.00 0.00 0.00 57 1017.1
20260502185029 69 266 2.0 9.0 0.00 0.00 0.00 58 1017.1
20260502184528 69 193 4.0 9.0 0.00 0.00 0.00 57 1017.1
20260502184026 69 196 4.0 9.0 0.00 0.00 0.00 58 1017.1
20260502183525 69 216 4.0 9.0 0.00 0.00 0.00 57 1017.1
20260502183024 69 211 3.0 6.0 0.00 0.00 0.00 57 1017.0
20260502182523 69 211 1.0 7.0 0.00 0.00 0.00 58 1017.0
20260502182021 69 148 2.0 7.0 0.00 0.00 0.00 60 1017.1
20260502181528 69 153 2.0 6.0 0.00 0.00 0.00 61 1017.1
20260502181018 68 185 3.0 7.0 0.00 0.00 0.00 61 1017.1
20260502180517 68 182 3.0 6.0 0.00 0.00 0.00 61 1017.2
20260502164055 63 226 2.0 5.0 0.00 0.00 0.00 71 1017.7
20260502163553 62 191 1.0 6.0 0.00 0.00 0.00 71 1017.7
20260502163054 62 214 4.0 6.0 0.00 0.00 0.00 72 1017.7
20260502162553 62 172 2.0 5.0 0.00 0.00 0.00 73 1017.7
20260502162050 62 175 3.0 5.0 0.00 0.00 0.00 73 1017.7
20260502161547 62 189 3.0 4.0 0.00 0.00 0.00 74 1017.7
20260502161045 61 196 2.0 5.0 0.00 0.00 0.00 75 1017.6
20260502160543 61 212 2.0 6.0 0.00 0.00 0.00 75 1017.7
20260502152030 56 183 1.0 4.0 0.00 0.00 0.00 85 1017.6
20260502151547 56 215 1.0 4.0 0.00 0.00 0.00 86 1017.6
20260502151028 55 225 0.0 4.0 0.00 0.00 0.00 86 1017.6
20260502150527 55 233 0.0 5.0 0.00 0.00 0.00 87 1017.6
20260502130506 51 20 2.0 4.0 0.00 0.00 0.00 81 1016.5
20260502123559 51 10 1.0 3.0 0.00 0.00 0.00 79 1016.3
20260502123105 51 56 2.0 4.0 0.00 0.00 0.00 79 1016.2
20260502122559 51 47 2.0 4.0 0.00 0.00 0.00 79 1016.2
20260502122059 51 28 1.0 3.0 0.00 0.00 0.00 79 1016.3
20260502121558 51 27 1.0 3.0 0.00 0.00 0.00 79 1016.3
20260502121101 51 47 1.0 3.0 0.00 0.00 0.00 79 1016.3
20260502120558 51 48 0.0 3.0 0.00 0.00 0.00 79 1016.2
20260502115556 52 14 0.0 4.0 0.00 0.00 0.00 78 1016.3
20260502115056 52 14 1.0 4.0 0.00 0.00 0.00 78 1016.2
20260502114559 52 10 1.0 3.0 0.00 0.00 0.00 78 1016.3
20260502114055 52 40 0.0 2.0 0.00 0.00 0.00 78 1016.3
20260502113554 52 43 1.0 3.0 0.00 0.00 0.00 78 1016.3
20260502113054 52 18 0.0 3.0 0.00 0.00 0.00 77 1016.3
20260502112552 52 51 1.0 3.0 0.00 0.00 0.00 77 1016.3
20260502112052 52 36 1.0 4.0 0.00 0.00 0.00 77 1016.3
20260502111558 52 17 1.0 3.0 0.00 0.00 0.00 76 1016.2
20260502111050 52 37 1.0 3.0 0.00 0.00 0.00 76 1016.2
20260502110550 53 27 2.0 3.0 0.00 0.00 0.00 76 1016.2
20260502110051 53 17 0.0 3.0 0.00 0.00 0.00 76 1016.2
20260502105547 53 17 1.0 2.0 0.00 0.00 0.00 76 1016.2
20260502105046 53 17 1.0 2.0 0.00 0.00 0.00 76 1016.2
20260502104546 53 344 0.0 2.0 0.00 0.00 0.00 76 1016.1
20260502104046 53 344 0.0 3.0 0.00 0.00 0.00 75 1016.1
20260502103546 53 344 1.0 3.0 0.00 0.00 0.00 75 1016.0
20260502103044 53 20 0.0 2.0 0.00 0.00 0.00 75 1015.9
20260502102544 53 20 0.0 2.0 0.00 0.00 0.00 74 1015.9
20260502102046 54 20 0.0 2.0 0.00 0.00 0.00 74 1015.9
20260502101556 54 20 0.0 2.0 0.00 0.00 0.00 74 1015.9
20260502101041 54 20 1.0 3.0 0.00 0.00 0.00 74 1015.8
20260502100542 54 29 1.0 3.0 0.00 0.00 0.00 74 1015.8
20260502100107 54 31 2.0 4.0 0.00 0.00 0.00 73 1015.7
20260502091041 55 27 1.0 3.0 0.00 0.00 0.00 71 1015.9
20260502090534 55 27 1.0 3.0 0.00 0.00 0.00 71 1015.8
20260502071514 59 38 0.0 2.0 0.00 0.00 0.00 67 1015.4
20260502071013 59 38 0.0 2.0 0.00 0.00 0.00 67 1015.3
20260502070513 60 38 1.0 2.0 0.00 0.00 0.00 67 1015.3
20260502070011 60 38 1.0 2.0 0.00 0.00 0.00 66 1015.3
20260502065511 60 141 1.0 2.0 0.00 0.00 0.00 65 1015.4
20260502065011 61 215 0.0 3.0 0.00 0.00 0.00 66 1015.3
20260502064510 61 215 1.0 3.0 0.00 0.00 0.00 64 1015.2
20260502064017 61 215 1.0 3.0 0.00 0.00 0.00 61 1015.1
20260502063510 61 289 0.0 5.0 0.00 0.00 0.00 57 1015.0
20260502063010 62 311 1.0 6.0 0.00 0.00 0.00 58 1015.1
20260502062513 62 313 3.0 6.0 0.00 0.00 0.00 58 1015.0
20260502062008 62 49 2.0 4.0 0.00 0.00 0.00 58 1014.9
20260502061512 63 42 1.0 9.0 0.00 0.00 0.00 56 1014.9
20260502061009 63 49 2.0 9.0 0.00 0.00 0.00 54 1014.8
20260502060509 63 30 2.0 9.0 0.00 0.00 0.00 54 1014.8
20260502060009 63 318 0.0 7.0 0.00 0.00 0.00 53 1014.7
20260502055509 63 316 2.0 13.0 0.00 0.00 0.00 53 1014.7
20260502055008 63 10 5.0 13.0 0.00 0.00 0.00 53 1014.6
20260502054507 63 26 7.0 14.0 0.00 0.00 0.00 53 1014.6
20260502054012 63 18 8.0 14.0 0.00 0.00 0.00 53 1014.6
20260502053507 63 16 8.0 14.0 0.00 0.00 0.00 52 1014.5
20260502053007 63 353 9.0 15.0 0.00 0.00 0.00 52 1014.5
20260502052507 63 342 10.0 15.0 0.00 0.00 0.00 53 1014.6
20260502052006 64 360 8.0 15.0 0.00 0.00 0.00 52 1014.6
20260502051515 64 340 8.0 12.0 0.00 0.00 0.00 52 1014.5
20260502051005 64 355 7.0 13.0 0.00 0.00 0.00 52 1014.5
20260502050508 64 39 6.0 13.0 0.00 0.00 0.00 52 1014.4
20260502050005 64 10 7.0 14.0 0.00 0.00 0.00 52 1014.4
20260502045508 64 10 8.0 14.0 0.00 0.00 0.00 53 1014.5
20260502045004 64 353 8.0 15.0 0.00 0.00 0.00 53 1014.5
20260502044502 64 33 8.0 15.0 0.00 0.00 0.00 53 1014.5
20260502044003 64 35 7.0 11.0 0.00 0.00 0.00 52 1014.5
20260502043503 64 360 6.0 14.0 0.00 0.00 0.00 51 1014.5
20260502043003 64 336 6.0 14.0 0.00 0.00 0.00 52 1014.5
20260502042502 63 360 6.0 12.0 0.00 0.00 0.00 52 1014.5
20260502042004 63 355 7.0 12.0 0.00 0.00 0.00 53 1014.5
20260502041505 63 27 4.0 11.0 0.00 0.00 0.00 53 1014.4
20260502041001 63 10 3.0 11.0 0.00 0.00 0.00 54 1014.5
20260502040501 63 46 3.0 6.0 0.00 0.00 0.00 55 1014.4
20260502040007 63 10 2.0 5.0 0.00 0.00 0.00 56 1014.3
20260502035502 64 40 2.0 3.0 0.00 0.00 0.00 60 1014.3
20260502035002 64 40 1.0 3.0 0.00 0.00 0.00 63 1014.3
20260502034503 64 360 1.0 3.0 0.00 0.00 0.00 64 1014.2
20260502034101 65 10 1.0 3.0 0.00 0.00 0.00 65 1014.2
20260502033600 65 10 1.0 3.0 0.00 0.00 0.00 65 1014.3
20260502033100 65 256 0.0 1.0 0.00 0.00 0.00 64 1014.3